timestamp,surface_pressure_avg,surface_temp_avg,battery_voltage,lat,long
2021-01-27 00:09:01+00:00,313.7114,2.2,12.73,47.84626,-54.09684
2021-01-27 00:19:01+00:00,307.1346,2.2,12.65,47.84626,-54.09684
2021-01-27 00:29:01+00:00,306.02299999999997,2.2,12.65,47.84626,-54.09684
2021-01-27 00:39:01+00:00,302.9447,2.2,12.65,47.84626,-54.09684
2021-01-27 00:49:01+00:00,295.2164,2.2,12.65,47.84626,-54.09684
2021-01-27 00:59:01+00:00,289.4147,2.2,12.65,47.84626,-54.09684
2021-01-27 01:09:01+00:00,285.748,2.21,12.65,47.84626,-54.09684
2021-01-27 01:19:01+00:00,279.5647,2.2,12.65,47.84626,-54.09684
2021-01-27 01:29:01+00:00,272.1514,2.11,12.65,47.84626,-54.09684
2021-01-27 01:39:01+00:00,266.073,2.1,12.65,47.84626,-54.09684
2021-01-27 01:49:01+00:00,261.8798,2.15,12.65,47.84626,-54.09684
2021-01-27 01:59:01+00:00,255.3931,2.2,12.65,47.84626,-54.09684
2021-01-27 02:09:01+00:00,247.0514,2.2,12.65,47.84626,-54.09684
2021-01-27 02:19:01+00:00,241.8531,2.17,12.65,47.84626,-54.09684
2021-01-27 02:29:01+00:00,239.4414,2.15,12.65,47.84626,-54.09684
2021-01-27 02:39:01+00:00,234.9831,2.19,12.65,47.84626,-54.09684
2021-01-27 02:49:01+00:00,229.2214,2.26,12.65,47.84626,-54.09684
2021-01-27 02:59:01+00:00,225.3814,2.26,12.65,47.84626,-54.09684
2021-01-27 03:09:01+00:00,223.0331,2.2,12.65,47.84626,-54.09684
2021-01-27 03:19:01+00:00,220.5015,2.1,12.57,47.84626,-54.09684
2021-01-27 03:29:01+00:00,217.2864,2.1,12.57,47.84626,-54.09684
2021-01-27 03:39:01+00:00,214.3914,2.1,12.57,47.84626,-54.09684
2021-01-27 03:49:01+00:00,212.7315,2.1,12.57,47.84626,-54.09684
2021-01-27 03:59:01+00:00,211.6515,2.1,12.57,47.84626,-54.09684
2021-01-27 04:09:01+00:00,211.3031,2.16,12.57,47.84626,-54.09684
2021-01-27 04:19:01+00:00,212.8764,2.18,12.57,47.84626,-54.09684
2021-01-27 04:29:01+00:00,215.0581,2.1,12.57,47.84626,-54.09684
2021-01-27 04:39:01+00:00,217.8581,2.1,12.57,47.84626,-54.09684
2021-01-27 04:49:01+00:00,222.9865,2.1,12.57,47.84626,-54.09684
2021-01-27 04:59:01+00:00,226.6048,2.08,12.57,47.84626,-54.09684
2021-01-27 05:09:01+00:00,227.0131,2.09,12.57,47.84626,-54.09684
2021-01-27 05:19:01+00:00,229.9514,2.07,12.57,47.84626,-54.09684
2021-01-27 05:29:01+00:00,234.9115,2.08,12.57,47.84626,-54.09684
2021-01-27 05:39:01+00:00,236.4764,2.1,12.57,47.84626,-54.09684
2021-01-27 05:49:01+00:00,236.6764,2.09,12.57,47.84626,-54.09684
2021-01-27 05:59:01+00:00,238.0748,2.1,12.57,47.84626,-54.09684
2021-01-27 06:09:01+00:00,241.7198,2.1,12.57,47.84626,-54.09684
2021-01-27 06:19:01+00:00,244.7697,2.08,12.57,47.84626,-54.09684
2021-01-27 06:29:01+00:00,249.3781,2.09,12.57,47.84626,-54.09684
2021-01-27 06:39:01+00:00,254.2147,2.16,12.57,47.84626,-54.09684
2021-01-27 06:49:01+00:00,258.2564,2.2,12.57,47.84626,-54.09684
2021-01-27 06:59:01+00:00,259.6564,2.2,12.57,47.84626,-54.09684
2021-01-27 07:09:01+00:00,261.9581,2.1,12.57,47.84626,-54.09684
2021-01-27 07:19:01+00:00,267.5614,2.1,12.57,47.84626,-54.09684
2021-01-27 07:29:01+00:00,272.5114,2.09,12.57,47.84626,-54.09684
2021-01-27 07:39:01+00:00,276.5498,2.09,12.57,47.84626,-54.09684
2021-01-27 07:49:01+00:00,281.3464,2.2,12.57,47.84626,-54.09684
2021-01-27 07:59:01+00:00,287.3397,2.22,12.57,47.84626,-54.09684
2021-01-27 08:09:01+00:00,291.1797,2.2,12.57,47.84626,-54.09684
2021-01-27 08:19:01+00:00,296.6214,2.2,12.57,47.84626,-54.09684
2021-01-27 08:29:01+00:00,304.393,2.1,12.57,47.84626,-54.09684
2021-01-27 08:39:01+00:00,311.6863,2.1,12.57,47.84626,-54.09684
2021-01-27 08:49:01+00:00,318.4714,2.1,12.57,47.84626,-54.09684
2021-01-27 08:59:01+00:00,324.6863,2.1,12.57,47.84626,-54.09684
2021-01-27 09:09:01+00:00,331.6796,2.1,12.57,47.84626,-54.09684
2021-01-27 09:19:01+00:00,336.2712,2.1,12.57,47.84626,-54.09684
2021-01-27 09:29:01+00:00,341.5129,2.1,12.57,47.84626,-54.09684
2021-01-27 09:39:01+00:00,346.69300000000015,2.1,12.57,47.84626,-54.09684
2021-01-27 09:49:01+00:00,351.8763,2.1,12.57,47.84626,-54.09684
2021-01-27 09:59:01+00:00,354.5596,2.1,12.57,47.84626,-54.09684
2021-01-27 10:09:01+00:00,356.3846,2.1,12.57,47.84626,-54.09684
2021-01-27 10:19:01+00:00,358.6945,2.1,12.57,47.84626,-54.09684
2021-01-27 10:29:01+00:00,360.6647,2.1,12.57,47.84626,-54.09684
2021-01-27 10:39:01+00:00,362.7696,2.1,12.57,47.84626,-54.09684
2021-01-27 10:49:01+00:00,364.9529,2.1,12.57,47.84626,-54.09684
2021-01-27 10:59:01+00:00,366.158,2.15,12.57,47.84626,-54.09684
2021-01-27 11:09:01+00:00,365.2163,2.17,12.57,47.84626,-54.09684
2021-01-27 11:19:01+00:00,365.7178,2.13,12.57,47.84626,-54.09684
2021-01-27 11:29:01+00:00,368.3697,2.12,12.57,47.84626,-54.09684
2021-01-27 11:39:01+00:00,365.7996,2.1,12.57,47.84626,-54.09684
2021-01-27 11:49:01+00:00,361.8713,2.1,12.57,47.84626,-54.09684
2021-01-27 11:59:01+00:00,359.5096,2.1,12.57,47.84626,-54.09684
2021-01-27 12:09:01+00:00,355.5696,2.1,12.57,47.84626,-54.09684
2021-01-27 12:19:01+00:00,351.1013,2.1,12.65,47.84626,-54.09684
2021-01-27 12:29:01+00:00,350.048,2.1,12.65,47.84626,-54.09684
2021-01-27 12:39:01+00:00,348.2728,2.1,12.65,47.84626,-54.09684
2021-01-27 12:49:01+00:00,343.5397,2.1,12.65,47.84626,-54.09684
2021-01-27 12:59:01+00:00,339.6829,2.1,12.65,47.84626,-54.09684
2021-01-27 13:09:01+00:00,334.6846,2.1,12.65,47.84626,-54.09684
2021-01-27 13:19:01+00:00,326.623,2.02,12.97,47.84626,-54.09684
2021-01-27 13:29:01+00:00,320.0163,2.0,12.97,47.84626,-54.09684
2021-01-27 13:39:01+00:00,313.9363,2.0,12.97,47.84626,-54.09684
2021-01-27 13:49:01+00:00,304.5347,2.0,12.97,47.84626,-54.09684
2021-01-27 13:59:01+00:00,295.4813,1.98,12.97,47.84626,-54.09684
2021-01-27 14:09:01+00:00,288.4114,1.99,12.97,47.84626,-54.09684
2021-01-27 14:19:01+00:00,283.1263,2.0,13.13,47.84626,-54.09684
2021-01-27 14:29:01+00:00,275.3414,2.0,13.13,47.84626,-54.09684
2021-01-27 14:39:01+00:00,267.9931,2.0,13.13,47.84626,-54.09684
2021-01-27 14:49:01+00:00,261.1497,2.0,13.13,47.84626,-54.09684
2021-01-27 14:59:01+00:00,254.5864,2.0,13.13,47.84626,-54.09684
2021-01-27 15:09:01+00:00,246.5681,2.0,13.13,47.84626,-54.09684
2021-01-27 15:19:01+00:00,239.8514,2.0,13.53,47.84626,-54.09684
2021-01-27 15:29:01+00:00,235.4198,2.0,13.53,47.84626,-54.09684
2021-01-27 15:39:01+00:00,229.8814,2.0,13.53,47.84626,-54.09684
2021-01-27 15:49:01+00:00,224.3315,2.0,13.53,47.84626,-54.09684
2021-01-27 15:59:01+00:00,220.4881,2.0,13.53,47.84626,-54.09684
2021-01-27 16:09:01+00:00,218.6114,2.0,13.53,47.84626,-54.09684
2021-01-27 16:19:01+00:00,215.6198,2.08,14.72,47.84626,-54.09684
2021-01-27 16:29:01+00:00,212.1448,2.1,14.72,47.84626,-54.09684
2021-01-27 16:39:01+00:00,210.7914,2.19,14.72,47.84626,-54.09684
2021-01-27 16:49:01+00:00,210.0164,2.2,14.72,47.84626,-54.09684
2021-01-27 16:59:01+00:00,210.2948,2.26,14.72,47.84626,-54.09684
2021-01-27 17:09:01+00:00,212.0414,2.29,14.72,47.84626,-54.09684
2021-01-27 17:19:01+00:00,212.1714,2.3,14.56,47.84626,-54.09684
2021-01-27 17:29:01+00:00,211.6047,2.3,14.56,47.84626,-54.09684
2021-01-27 17:39:01+00:00,212.9898,2.3,14.56,47.84626,-54.09684
2021-01-27 17:49:01+00:00,215.8731,2.3,14.56,47.84626,-54.09684
2021-01-27 17:59:01+00:00,216.8148,2.3,14.56,47.84626,-54.09684
2021-01-27 18:09:01+00:00,216.4599,2.3,14.56,47.84626,-54.09684
2021-01-27 18:19:01+00:00,217.0464,2.3,14.24,47.84626,-54.09684
2021-01-27 18:29:01+00:00,219.9281,2.33,14.24,47.84626,-54.09684
2021-01-27 18:39:01+00:00,223.3531,2.34,14.24,47.84626,-54.09684
2021-01-27 18:49:01+00:00,226.0631,2.3,14.24,47.84626,-54.09684
2021-01-27 18:59:01+00:00,226.1964,2.3,14.24,47.84626,-54.09684
2021-01-27 19:09:01+00:00,229.6248,2.3,14.24,47.84626,-54.09684
2021-01-27 19:19:01+00:00,237.1548,2.3,14.32,47.84626,-54.09684
2021-01-27 19:29:01+00:00,243.5014,2.3,14.32,47.84626,-54.09684
2021-01-27 19:39:01+00:00,247.1798,2.3,14.32,47.84626,-54.09684
2021-01-27 19:49:01+00:00,251.4581,2.3,14.32,47.84626,-54.09684
2021-01-27 19:59:01+00:00,258.1847,2.3,14.32,47.84626,-54.09684
2021-01-27 20:09:01+00:00,263.8114,2.3,14.32,47.84626,-54.09684
2021-01-27 20:19:01+00:00,269.608,2.3,13.6,47.84626,-54.09684
2021-01-27 20:29:01+00:00,275.7531,2.3,13.6,47.84626,-54.09684
2021-01-27 20:39:01+00:00,282.3897,2.2,13.6,47.84626,-54.09684
2021-01-27 20:49:01+00:00,286.4847,2.2,13.6,47.84626,-54.09684
2021-01-27 20:59:01+00:00,292.4313,2.2,13.6,47.84626,-54.09684
2021-01-27 21:09:01+00:00,300.9147,2.2,13.6,47.84626,-54.09684
2021-01-27 21:19:01+00:00,308.3013,2.2,13.13,47.84626,-54.09684
2021-01-27 21:29:01+00:00,311.7697,2.2,13.13,47.84626,-54.09684
2021-01-27 21:39:01+00:00,316.1462,2.2,13.13,47.84626,-54.09684
2021-01-27 21:49:01+00:00,321.5946,2.2,13.13,47.84626,-54.09684
2021-01-27 21:59:01+00:00,324.7697,2.27,13.13,47.84626,-54.09684
2021-01-27 22:09:01+00:00,328.73800000000006,2.29,13.13,47.84626,-54.09684
2021-01-27 22:19:01+00:00,331.1313,2.3,12.81,47.84626,-54.09684
2021-01-27 22:29:01+00:00,334.1447,2.3,12.81,47.84626,-54.09684
2021-01-27 22:39:01+00:00,338.3362,2.3,12.81,47.84626,-54.09684
2021-01-27 22:49:01+00:00,341.7396,2.3,12.81,47.84626,-54.09684
2021-01-27 22:59:01+00:00,343.923,2.3,12.81,47.84626,-54.09684
2021-01-27 23:09:01+00:00,346.25800000000015,2.3,12.81,47.84626,-54.09684
2021-01-27 23:19:01+00:00,347.7428,2.3,12.65,47.84626,-54.09684
2021-01-27 23:29:01+00:00,345.6262,2.3,12.65,47.84626,-54.09684
2021-01-27 23:39:01+00:00,344.0145,2.3,12.65,47.84626,-54.09684
2021-01-27 23:49:01+00:00,342.4313,2.3,12.65,47.84626,-54.09684
2021-01-27 23:59:01+00:00,338.6712,2.32,12.65,47.84626,-54.09684
